Regional Weather Roundup
Issued by NWS Mt. Holly, NJ

Current Version | Previous Version | Graphics & Text | Print | Product List | Glossary On
Versions: 1 2 3 4 5 6 7 8 9 10 11 12 13 14 15 16 17 18 19 20 21 22 23 24 25 26 27 28 29 30 31 32 33 34 35 36 37 38 39 40 41 42 43 44 45 46 47 48 49 50
000
ASUS41 KPHI 260612
RWRPHI

REGIONAL WEATHER ROUNDUP
NATIONAL WEATHER SERVICE MOUNT HOLLY NJ
200 AM EDT SAT SEP 26 2020

NOTE:  "FAIR" INDICATES FEW OR NO CLOUDS BELOW 12,000 FEET WITH NO
SIGNIFICANT WEATHER AND/OR OBSTRUCTIONS TO VISIBILITY.

 * = STATION DOES NOT REPORT PRECIPITATION (E.G. RAIN, SNOW, ETC.)
        OR FOG.

NJZ015>026-260700-
SOUTHERN NEW JERSEY

CITY           SKY/WX    TMP DP  RH WIND       PRES   REMARKS
POMONA         CLOUDY    60  59  96 CALM      30.10F
6HR MIN TEMP:  58; 6HR MAX TEMP:  66;

WILDWOOD*      CLOUDY    67  60  78 E7        30.09S
MILLVILLE      CLOUDY    62  59  90 CALM      30.09F
WRIGHTSTOWN    MOCLDY    62  61  95 CALM      30.10S
MOUNT HOLLY    MOCLDY    61  60  97 CALM      30.10F
TRENTON        CLOUDY    63  61  93 CALM      30.10S
6HR MIN TEMP:  61; 6HR MAX TEMP:  68; 6HR PCP: TRACE;


$$
NJZ001>014-260700-
NORTHERN NEW JERSEY

CITY           SKY/WX    TMP DP  RH WIND       PRES   REMARKS
SUSSEX         FOG       54  54 100 CALM      30.10S VSB 1/4
ANDOVER*         N/A     55  54  96 CALM      30.11R
MORRISTOWN     FOG       54  52  94 CALM      30.10S VSB<1/4
NEWARK         MOCLDY    64  61  90 SW6       30.11R
TETERBORO      MOCLDY    61  59  93 SW3       30.09R
CALDWELL       MOCLDY    61  57  87 CALM      30.11R
SOMERVILLE     MOCLDY    56  54  93 CALM      30.09S FOG
ALLAIRE*       MOCLDY    63  50  63 S3        30.13R
TOMS RIVER*    PTCLDY    61  59  93 CALM      30.12R

$$
PAZ043-044-047-054-055-060>062-066>071-260700-
EASTERN PENNSYLVANIA

CITY           SKY/WX    TMP DP  RH WIND       PRES   REMARKS
PHILADELPHIA   MOCLDY    65  61  87 CALM      30.10S
6HR MIN TEMP:  64; 6HR MAX TEMP:  69;

NORTH PHILA    CLOUDY    66  61  84 CALM      30.12S
BLUE BELL*     CLOUDY    58  58  98 CALM      30.11S
DOYLESTOWN     MOCLDY    61  58  90 CALM      30.10S
QUAKERTOWN*    CLEAR     54  54 100 CALM      30.11S
PERKASIE*        N/A     55  55 100 CALM      30.12S FOG
POTTSTOWN      MOCLDY    58  57  97 CALM      30.12S
LANCASTER      CLOUDY    60  57  89 E3        30.09F FOG
COATESVILLE    CLOUDY    59  59 100 CALM      30.11F
WEST CHESTER   CLOUDY    61  57  88 CALM      30.11S
READING        MOCLDY    59  57  93 CALM      30.08F
6HR MIN TEMP:  58; 6HR MAX TEMP:  69;

ALLENTOWN      PTCLDY    57  54  89 CALM      30.10S
6HR MIN TEMP:  54; 6HR MAX TEMP:  70;

QN CITY/ALNTWN FAIR      55  55 100 CALM      30.12R
MOUNT POCONO   PTCLDY    50  49  96 N3        30.12R FOG
6HR MIN TEMP:  49; 6HR MAX TEMP:  59;

HAZLETON       CLEAR     50  50 100 CALM      30.14S FOG
LEHIGHTON      FOG       55  55 100 CALM      30.11R VSB<1/4
WILKES BARRE   CLEAR     58  55  90 SE3       30.09S

$$
DEZALL-MDZ008-012-015-019-020-260700-
DELAWARE AND EASTERN MARYLAND

CITY           SKY/WX    TMP DP  RH WIND       PRES   REMARKS
WILMINGTON     MOCLDY    61  58  90 NW3       30.10F
6HR MIN TEMP:  61; 6HR MAX TEMP:  67;

DOVER          CLOUDY    63  60  89 CALM      30.09R
CHESWOLD       CLOUDY    61  61 100 CALM      30.10R FOG
GEORGETOWN     CLOUDY    64  60  87 NE3       30.07F
6HR MIN TEMP:  63; 6HR MAX TEMP:  65;

EASTON         RAIN      62  61  96 NE3       30.10F
STEVENSVILLE   RAIN      61 N/A N/A CALM      30.07F
ABERDEEN       LGT RAIN  63  61  94 SE3       30.08S FOG
PATUXENT       CLOUDY    64  61  90 E5        30.05
OCEAN CITY     CLOUDY    68  62  81 SE12      30.06F
WALLOPS ISLAND PTCLDY    68  66  93 E6        30.05F
CAMBRIDGE      CLOUDY    63  63 100 NE7       30.05F
SALISBURY      CLOUDY    65  60  84 E3        30.06F

$$
PAZ001-021-NYZ056-072-MDZ011-DCZ001-260700-
OTHER NEARBY LOCATIONS

CITY           SKY/WX    TMP DP  RH WIND       PRES   REMARKS
HARRISBURG     MOCLDY    62  58  86 CALM      30.08S
STATE COLLEGE  CLEAR     56  53  90 SW5       30.08S
WILLIAMSPORT   PTCLDY    57  53  86 CALM      30.06S
BINGHAMTON     CLEAR     59  55  87 S3        30.09S
NEW YORK CITY  MOCLDY    66  60  81 VRB3      30.13R
BALTIMORE      LGT RAIN  63  61  93 CALM      30.07F FOG
WASHINGTON DC  LGT RAIN  63  61  93 CALM      30.08S FOG

$$



USA.gov is the U.S. government's official web portal to all federal, state and local government web resources and services.